Location: Fort Worth, Tx
(32.7431°N, 97.3695°W)
Time: 01:36:15
(UTC-04:00)

Tiros 1 despin weight - Visible Passes

Search period start: 08 September 2024 00:00
Search period end: 18 September 2024 00:00
Orbit: 574 x 618 km, 48.2° (Epoch: 07 September)

Date Brightness Start Highest point End Pass type
(mag) Time Alt. Az. Time Alt. Az. Time Alt. Az.
08 Sep ? 06:50:17 18° SSW 06:53:17 45° SE 06:57:37 10° ENE visible
09 Sep ? 05:22:58 10° ESE 05:22:58 10° ESE 05:23:10 10° ESE visible
09 Sep ? 06:59:35 23° SW 07:02:22 85° SE 07:06:57 10° NE visible
10 Sep ? 05:32:09 19° ESE 05:32:09 19° ESE 05:34:16 10° E visible
10 Sep ? 07:08:45 21° WSW 07:11:34 54° NW 07:16:02 10° NE visible
11 Sep ? 05:41:14 31° E 05:41:14 31° E 05:44:00 10° ENE visible
11 Sep ? 07:17:50 16° W 07:20:50 33° NNW 07:24:58 10° NE visible
12 Sep ? 05:50:12 43° ENE 05:50:12 43° ENE 05:53:17 10° NE visible
12 Sep ? 07:26:48 11° WNW 07:30:12 22° NNW 07:33:48 10° NNE visible
13 Sep ? 05:59:05 42° NNE 05:59:05 42° NNE 06:02:21 10° NE visible
13 Sep ? 07:36:44 10° WNW 07:39:39 16° NNW 07:42:34 10° NNE visible
14 Sep ? 06:07:54 32° N 06:07:54 32° N 06:11:14 10° NE visible
14 Sep ? 07:47:00 10° NW 07:49:09 13° NNW 07:51:20 10° NNE visible
15 Sep ? 06:16:38 23° NNW 06:16:38 23° NNW 06:20:00 10° NNE visible
16 Sep ? 06:25:19 17° NNW 06:25:43 17° NNW 06:28:43 10° NNE visible
17 Sep ? 06:33:58 12° NNW 06:35:09 13° NNW 06:37:25 10° NNE visible
